Location: Ay?beleni
(36.6500°N, 30.3000°E)
Time: 02:25:10
(UTC+00:00)

Cosmos 1269 Rocket - Pass Details

Date: 16 October 2021
Orbit: 773 x 778 km, 74.1° (Epoch: 04 December)

Event Time Altitude Azimuth Distance (km) Brightness Sun altitude
Rises 17:26:28 0° 341° (NNW) 3,263 7.6 -25.9°
Reaches altitude 10° 17:28:52 10° 342° (NNW) 2,331 6.8 -26.4°
Enters shadow 17:34:01 84° 313° (NW) 784 3.9 -27.4°
